Arusha, Tanzania

11:00 AM EAT on May 24, 2017 (GMT +0300)
Arusha

Weather History for HTAR - January, 2014

Change the Weather History Date:

Wednesday, January 29, 2014

  Actual Average Record
Temperature  
Mean Temperature 72 °F -  
Max Temperature 89 °F - - ()
Min Temperature 55 °F - - ()
Cooling Degree Days 7    
Growing Degree Days 22 (Base 50)    
Moisture  
Dew Point 59 °F    
Average Humidity 71    
Maximum Humidity 100    
Minimum Humidity 27    
Precipitation  
Precipitation 0.00 in 0.10 in - ()
Sea Level Pressure  
Sea Level Pressure 30.04 in    
Wind  
Wind Speed 5 mph ()    
Max Wind Speed 17 mph    
Max Gust Speed -    
Visibility 6.2 miles    
Events      
T = Trace of Precipitation, MM = Missing Value Source: Averaged Metar Reports

Daily Weather History Graph

Daily Weather History Graph

Search for Another Location

Airport or City:

Trip Planner

Search our weather history database for the weather conditions in past years. The results will help you decide how hot, cold, wet, or windy it might be!

Date:

Astronomy

Jan. 29, 2014 Rise Set
Actual Time 6:38 AM EAT 6:54 PM EAT
Civil Twilight 6:16 AM EAT 7:16 PM EAT
Nautical Twilight 5:51 AM EAT 7:41 PM EAT
Astronomical Twilight 5:26 AM EAT 8:07 PM EAT
Moon 4:52 AM EAT (1/29) 5:30 PM EAT (1/29)
Length of Visible Light 12h 59m
Length of Day
12h 15m
Waning Crescent, 4% of the Moon is Illuminated
Jan 29
Waning Crescent
Jan 31
New
Feb 6
First Quarter
Feb 15
Full
Feb 22
Last Quarter

Hourly Weather History & Observations

Time (EAT) Temp. Heat Index Dew Point Humidity Pressure Visibility Wind Dir Wind Speed Gust Speed Precip Events Conditions
12:00 AM 60.8 °F - 59.0 °F 94% 30.04 in - Calm Calm - N/A   Clear
1:00 AM 60.8 °F - 57.2 °F 88% 30.04 in - NNW 5.8 mph - N/A   Clear
2:00 AM 59.0 °F - 55.4 °F 88% 30.04 in - NNW 5.8 mph - N/A   Clear
3:00 AM 57.2 °F - 55.4 °F 94% 30.01 in - NNW 11.5 mph - N/A   Clear
4:00 AM 57.2 °F - 55.4 °F 94% 30.01 in - North 5.8 mph - N/A   Clear
5:00 AM 55.4 °F - 55.4 °F 100% 30.04 in 6.2 mi Calm Calm - N/A   Partly Cloudy
6:00 AM 55.4 °F - 55.4 °F 100% 30.04 in 6.2 mi Calm Calm - N/A   Partly Cloudy
7:00 AM 55.4 °F - 53.6 °F 94% 30.06 in 6.2 mi North 5.8 mph - N/A   Partly Cloudy
8:00 AM 62.6 °F - 59.0 °F 88% 30.09 in 6.2 mi Calm Calm - N/A   Partly Cloudy
9:00 AM 69.8 °F - 62.6 °F 78% 30.12 in 6.2 mi ESE 5.8 mph - N/A   Partly Cloudy
10:00 AM 73.4 °F - 60.8 °F 65% 30.12 in 6.2 mi SE 5.8 mph - N/A   Partly Cloudy
11:00 AM 75.2 °F - 64.4 °F 69% 30.09 in 6.2 mi SE 11.5 mph - N/A   Partly Cloudy
12:00 PM 77.0 °F - 62.6 °F 61% 30.09 in 6.2 mi ESE 9.2 mph - N/A   Partly Cloudy
1:00 PM 80.6 °F 81.8 °F 62.6 °F 54% 30.06 in 6.2 mi ESE 8.1 mph - N/A   Partly Cloudy
2:00 PM 80.6 °F 81.8 °F 62.6 °F 54% 30.04 in 6.2 mi ENE 8.1 mph - N/A   Partly Cloudy
3:00 PM 86.0 °F 84.9 °F 57.2 °F 37% 29.98 in 6.2 mi SE 9.2 mph - N/A   Partly Cloudy
4:00 PM 89.6 °F - 51.8 °F 27% 29.95 in 6.2 mi NW 11.5 mph - N/A   Scattered Clouds
5:00 PM 87.8 °F - 50.0 °F 27% 29.95 in 6.2 mi SSE 11.5 mph - N/A   Scattered Clouds
6:00 PM 84.2 °F 83.8 °F 59.0 °F 42% 29.98 in 6.2 mi ENE 13.8 mph - N/A   Partly Cloudy
7:00 PM 77.0 °F - 62.6 °F 61% 30.01 in 6.2 mi ENE 17.3 mph - N/A   Partly Cloudy
8:00 PM 75.2 °F - 62.6 °F 65% 30.01 in 6.2 mi East 11.5 mph - N/A   Partly Cloudy
9:00 PM - - - N/A% 30.04 in 6.2 mi East 11.5 mph - N/A   Partly Cloudy
10:00 PM 69.8 °F - 62.6 °F 78% 30.06 in 6.2 mi ESE 5.8 mph - N/A   Partly Cloudy
11:00 PM 68.0 °F - 62.6 °F 83% 30.06 in 6.2 mi Calm Calm - N/A   Partly Cloudy